HS3HXZ-1 Weather Reports


Display with metric or nautical units.
time (UTC)temp
F
wind
direction
speed
MPH
gust
MPH
rain 1hr
in
rain 24hr
in
rain mn
in
humidity
%
barometer
mb
20260903151709 79 0 0.0 0.0 0.00 0.00 0.00 30 1007.0
20260903150145 79 0 0.0 0.0 0.00 0.00 0.00 30 1007.0
20260903144620 80 0 0.0 0.0 0.00 0.00 0.00 30 1006.0
20260903143056 80 0 0.0 0.0 0.00 0.00 0.00 32 1007.0
20260903141531 81 0 0.0 0.0 0.00 0.00 0.00 31 1006.0
20260903140007 82 0 0.0 0.0 0.00 0.00 0.00 31 1006.0
20260903134442 84 0 0.0 0.0 0.00 0.00 0.00 31 1006.0
20260903132918 86 0 0.0 0.0 0.00 0.00 0.00 31 1005.0
20260903131354 89 0 0.0 0.0 0.00 0.00 0.00 32 1005.0
20260903125829 96 0 0.0 0.0 0.00 0.00 0.00 49 1005.0
20260903124305 97 0 0.0 0.0 0.00 0.00 0.00 49 1005.0
20260903122740 97 0 0.0 0.0 0.00 0.00 0.00 49 1004.0
20260903121216 97 0 0.0 0.0 0.00 0.00 0.00 49 1004.0
20260903115651 97 0 0.0 0.0 0.00 0.00 0.00 49 1004.0
20260903114127 97 0 0.0 0.0 0.00 0.00 0.00 49 1004.0
20260903112602 97 0 0.0 0.0 0.00 0.00 0.00 48 1004.0
20260903111038 97 0 0.0 0.0 0.00 0.00 0.00 48 1003.0
20260903105513 97 0 0.0 0.0 0.00 0.00 0.00 47 1003.0
20260903103949 96 0 0.0 0.0 0.00 0.00 0.00 47 1003.0
20260903102424 96 0 0.0 0.0 0.00 0.00 0.00 47 1003.0
20260903100900 95 0 0.0 0.0 0.00 0.00 0.00 46 1003.0
20260903095335 95 0 0.0 0.0 0.00 0.00 0.00 45 1003.0
20260903093811 94 0 0.0 0.0 0.00 0.00 0.00 44 1003.0
20260903092246 92 0 0.0 0.0 0.00 0.00 0.00 44 1003.0
20260903090722 90 0 0.0 0.0 0.00 0.00 0.00 42 1003.0
20260903085158 88 0 0.0 0.0 0.00 0.00 0.00 39 1003.0
20260903083633 84 0 0.0 0.0 0.00 0.00 0.00 40 1004.0
20260903082108 84 0 0.0 0.0 0.00 0.00 0.00 37 1004.0
20260903080515 83 0 0.0 0.0 0.00 0.00 0.00 37 1004.0
20260903075540 82 0 0.0 0.0 0.00 0.00 0.00 37 1004.0
20260903074015 82 0 0.0 0.0 0.00 0.00 0.00 38 1004.0
20260903073352 82 0 0.0 0.0 0.00 0.00 0.00 39 1004.0